GW1567 Weather Reports


time (UTC)temp
C
wind
direction
speed
KPH
gust
KPH
rain 1hr
cm
rain 24hr
cm
rain mn
cm
humidity
%
barometer
mb
20260506222953 32 4 4.8 8.0 0.00 0.00 0.00 48 1014.3
20260506222450 32 292 6.4 8.0 0.00 0.00 0.00 48 1014.3
20260506221947 32 305 3.2 4.8 0.00 0.00 0.00 47 1014.3
20260506221444 32 240 3.2 4.8 0.00 0.00 0.00 47 1014.3
20260506220942 32 324 4.8 8.0 0.00 0.00 0.00 48 1014.2
20260506220437 32 203 4.8 8.0 0.00 0.00 0.00 47 1014.3
20260506215934 32 283 6.4 9.7 0.00 0.00 0.00 48 1014.3
20260506215430 33 301 4.8 8.0 0.00 0.00 0.00 48 1014.3
20260506214926 33 232 4.8 8.0 0.00 0.00 0.00 46 1014.1
20260506214423 33 297 4.8 4.8 0.00 0.00 0.00 47 1014.0
20260506213921 33 233 4.8 8.0 0.00 0.00 0.00 47 1014.1
20260506213418 33 286 4.8 4.8 0.00 0.00 0.00 47 1014.1
20260506212915 33 285 4.8 4.8 0.00 0.00 0.00 48 1014.4
20260506212411 33 319 4.8 8.0 0.00 0.00 0.00 47 1014.3
20260506211906 33 227 6.4 8.0 0.00 0.00 0.00 47 1014.2
20260506211403 33 140 3.2 4.8 0.00 0.00 0.00 47 1014.3
20260506210900 33 339 3.2 4.8 0.00 0.00 0.00 48 1014.3
20260506210356 32 305 3.2 4.8 0.00 0.00 0.00 48 1014.2
20260506205854 33 301 6.4 9.7 0.00 0.00 0.00 47 1014.5
20260506205349 33 55 4.8 4.8 0.00 0.00 0.00 48 1014.4
20260506204846 33 265 4.8 4.8 0.00 0.00 0.00 46 1014.5
20260506204344 33 311 6.4 9.7 0.00 0.00 0.00 47 1014.6
20260506203841 33 258 6.4 9.7 0.00 0.00 0.00 48 1014.7
20260506203338 32 284 6.4 8.0 0.00 0.00 0.00 48 1014.6
20260506202835 33 69 4.8 4.8 0.00 0.00 0.00 47 1014.9
20260506202332 33 204 6.4 8.0 0.00 0.00 0.00 46 1014.7
20260506201829 33 292 11.3 14.5 0.00 0.00 0.00 44 1014.7
20260506201326 33 2 3.2 3.2 0.00 0.00 0.00 43 1014.7
20260506200823 33 8 4.8 8.0 0.00 0.00 0.00 42 1015.0
20260506200319 33 304 8.0 9.7 0.00 0.00 0.00 44 1015.0
20260506195815 33 234 3.2 3.2 0.00 0.00 0.00 47 1015.0
20260506195312 32 292 4.8 8.0 0.00 0.00 0.00 49 1015.0
20260506194809 33 313 6.4 8.0 0.00 0.00 0.00 48 1014.9
20260506194306 32 247 8.0 11.3 0.00 0.00 0.00 49 1015.0
20260506193804 32 306 6.4 8.0 0.00 0.00 0.00 49 1015.2
20260506193300 32 247 4.8 4.8 0.00 0.00 0.00 48 1015.2
20260506192756 32 294 1.6 3.2 0.00 0.00 0.00 47 1015.4
20260506192253 32 240 4.8 4.8 0.00 0.00 0.00 47 1015.3
20260506191750 32 254 9.7 11.3 0.00 0.00 0.00 45 1015.5
20260506191247 32 271 4.8 4.8 0.00 0.00 0.00 47 1015.7
20260506190744 32 255 8.0 11.3 0.00 0.00 0.00 48 1015.8
20260506190240 32 242 8.0 11.3 0.00 0.00 0.00 49 1015.8
20260506185737 32 212 4.8 4.8 0.00 0.00 0.00 49 1015.7
20260506185234 32 166 8.0 11.3 0.00 0.00 0.00 47 1016.0
20260506184731 32 302 3.2 3.2 0.00 0.00 0.00 49 1016.1
20260506184228 32 312 4.8 8.0 0.00 0.00 0.00 48 1015.9
20260506183725 32 155 1.6 3.2 0.00 0.00 0.00 48 1016.0
20260506183221 32 245 4.8 4.8 0.00 0.00 0.00 50 1015.9
20260506182718 32 317 6.4 8.0 0.00 0.00 0.00 50 1016.0
20260506182215 31 326 4.8 4.8 0.00 0.00 0.00 49 1016.1
20260506181713 31 299 8.0 11.3 0.00 0.00 0.00 52 1016.2
20260506181210 31 344 4.8 8.0 0.00 0.00 0.00 52 1016.4
20260506180707 31 269 8.0 11.3 0.00 0.00 0.00 50 1016.4
20260506180203 32 276 8.0 11.3 0.00 0.00 0.00 51 1016.5
20260506175659 31 1 1.6 1.6 0.00 0.00 0.00 53 1016.7
20260506175156 31 354 4.8 4.8 0.00 0.00 0.00 53 1016.6
20260506174649 32 280 4.8 8.0 0.00 0.00 0.00 52 1016.8
20260506174145 31 302 4.8 8.0 0.00 0.00 0.00 51 1016.8
20260506173643 31 272 11.3 11.3 0.00 0.00 0.00 52 1016.7
20260506173140 31 214 12.9 14.5 0.00 0.00 0.00 53 1016.9
20260506172637 31 336 8.0 9.7 0.00 0.00 0.00 53 1016.9
20260506172133 31 268 8.0 9.7 0.00 0.00 0.00 53 1016.8
20260506171631 30 312 4.8 4.8 0.00 0.00 0.00 53 1016.9
20260506171128 31 204 6.4 11.3 0.00 0.00 0.00 55 1016.9
20260506170620 31 317 9.7 11.3 0.00 0.00 0.00 56 1017.1
20260506170117 30 314 3.2 3.2 0.00 0.00 0.00 57 1017.0
20260506165615 30 233 6.4 9.7 0.00 0.00 0.00 58 1017.2
20260506165111 30 92 4.8 4.8 0.00 0.00 0.00 58 1017.1
20260506164608 30 303 6.4 9.7 0.00 0.00 0.00 58 1017.3
20260506164106 30 288 4.8 8.0 0.00 0.00 0.00 59 1017.4
20260506163601 30 287 8.0 11.3 0.00 0.00 0.00 59 1017.3
20260506163057 30 252 8.0 9.7 0.00 0.00 0.00 58 1017.3
20260506162553 30 166 8.0 9.7 0.00 0.00 0.00 58 1017.3
20260506162045 30 159 8.0 11.3 0.00 0.00 0.00 60 1017.3
20260506161543 30 310 4.8 4.8 0.00 0.00 0.00 60 1017.5
20260506161039 29 321 9.7 11.3 0.00 0.00 0.00 62 1017.5
20260506160537 29 264 11.3 12.9 0.00 0.00 0.00 61 1017.6
20260506160034 29 330 9.7 12.9 0.00 0.00 0.00 62 1017.7
20260506155533 28 259 4.8 8.0 0.00 0.00 0.00 62 1017.5
20260506153709 28 324 4.8 4.8 0.00 0.00 0.00 65 1017.5
20260506153207 28 127 6.4 8.0 0.00 0.00 0.00 65 1017.7
20260506152703 28 312 6.4 9.7 0.00 0.00 0.00 64 1017.8
20260506152201 28 198 3.2 3.2 0.00 0.00 0.00 66 1017.5
20260506151700 27 279 8.0 11.3 0.00 0.00 0.00 65 1017.7
20260506151156 27 48 1.6 3.2 0.00 0.00 0.00 66 1017.7
20260506150652 27 214 4.8 4.8 0.00 0.00 0.00 68 1017.6
20260506150150 27 224 9.7 12.9 0.00 0.00 0.00 67 1017.6
20260506145646 27 158 4.8 4.8 0.00 0.00 0.00 68 1017.7
20260506145143 27 260 8.0 9.7 0.00 0.00 0.00 68 1017.7
20260506144641 26 264 8.0 9.7 0.00 0.00 0.00 69 1017.6
20260506144137 26 207 9.7 12.9 0.00 0.00 0.00 68 1017.4
20260506143635 26 257 6.4 8.0 0.00 0.00 0.00 69 1017.3
20260506143133 26 213 8.0 9.7 0.00 0.00 0.00 70 1017.3
20260506142631 26 265 4.8 8.0 0.00 0.00 0.00 70 1017.4
20260506142129 25 312 3.2 4.8 0.00 0.00 0.00 71 1017.4
20260506141626 25 243 8.0 9.7 0.00 0.00 0.00 72 1017.3
20260506141125 25 199 4.8 4.8 0.00 0.00 0.00 73 1017.4
20260506140622 25 109 1.6 3.2 0.00 0.00 0.00 73 1017.4
20260506140119 25 212 9.7 11.3 0.00 0.00 0.00 74 1017.4
20260506135616 25 155 8.0 12.9 0.00 0.00 0.00 75 1017.5
20260506135112 25 226 4.8 8.0 0.00 0.00 0.00 76 1017.4
20260506134609 24 202 3.2 8.0 0.00 0.00 0.00 77 1017.5
20260506134104 24 121 9.7 11.3 0.00 0.00 0.00 77 1017.5
20260506133602 24 219 4.8 12.9 0.00 0.00 0.00 78 1017.4
20260506133059 23 282 6.4 9.7 0.00 0.00 0.00 79 1017.4
20260506132556 23 48 4.8 4.8 0.00 0.00 0.00 78 1017.6
20260506132053 23 153 4.8 4.8 0.00 0.00 0.00 79 1017.4
20260506131550 23 34 1.6 1.6 0.00 0.00 0.00 79 1017.3
20260506131046 23 241 4.8 4.8 0.00 0.00 0.00 80 1017.3
20260506130543 22 275 3.2 3.2 0.00 0.00 0.00 80 1017.4
20260506130041 22 233 4.8 9.7 0.00 0.00 0.00 81 1017.3
20260506125539 22 198 3.2 4.8 0.00 0.00 0.00 80 1017.4
20260506125037 21 33 1.6 1.6 0.00 0.00 0.00 81 1017.4
20260506124534 21 217 3.2 3.2 0.00 0.00 0.00 81 1017.3
20260506124032 21 50 0.0 0.0 0.00 0.00 0.00 83 1017.5
20260506123529 20 120 4.8 8.0 0.00 0.00 0.00 84 1017.3
20260506123027 20 317 1.6 1.6 0.00 0.00 0.00 86 1017.2
20260506122524 19 280 1.6 1.6 0.00 0.00 0.00 88 1017.1
20260506122022 18 241 3.2 3.2 0.00 0.00 0.00 92 1017.0
20260506121519 17 317 1.6 1.6 0.00 0.00 0.00 94 1017.0
20260506121015 17 12 0.0 0.0 0.00 0.00 0.00 96 1016.8
20260506120514 16 23 0.0 0.0 0.00 0.00 0.00 96 1016.8
20260506120011 16 11 0.0 0.0 0.00 0.00 0.00 97 1016.6
20260506115508 16 11 0.0 0.0 0.00 0.00 0.00 97 1016.6
20260506115007 15 17 0.0 0.0 0.00 0.00 0.00 97 1016.9
20260506114504 15 5 0.0 0.0 0.00 0.00 0.00 97 1016.7
20260506114002 15 16 0.0 0.0 0.00 0.00 0.00 97 1016.5
20260506113459 15 16 0.0 0.0 0.00 0.00 0.00 97 1016.7
20260506112956 15 11 0.0 0.0 0.00 0.00 0.00 97 1016.7
20260506112453 15 16 0.0 0.0 0.00 0.00 0.00 97 1016.5
20260506111950 14 15 0.0 0.0 0.00 0.00 0.00 97 1016.5
20260506111449 14 16 0.0 0.0 0.00 0.00 0.00 97 1016.6
20260506110945 14 16 0.0 0.0 0.00 0.00 0.00 97 1016.7
20260506110443 14 17 0.0 0.0 0.00 0.00 0.00 97 1016.4
20260506105939 14 20 0.0 0.0 0.00 0.00 0.00 97 1016.4
20260506105436 14 20 0.0 0.0 0.00 0.00 0.00 97 1016.6
20260506104933 14 24 0.0 0.0 0.00 0.00 0.00 97 1016.3
20260506104431 14 19 0.0 0.0 0.00 0.00 0.00 97 1016.1
20260506103930 14 6 0.0 0.0 0.00 0.00 0.00 97 1016.2
20260506103427 14 6 0.0 0.0 0.00 0.00 0.00 97 1016.1
20260506102923 14 7 0.0 0.0 0.00 0.00 0.00 97 1016.1
20260506102421 14 12 0.0 0.0 0.00 0.00 0.00 97 1016.1
20260506101918 14 12 0.0 0.0 0.00 0.00 0.00 97 1016.0
20260506101414 14 4 0.0 0.0 0.00 0.00 0.00 97 1016.3
20260506100912 14 3 0.0 0.0 0.00 0.00 0.00 96 1016.2
20260506100410 14 4 0.0 0.0 0.00 0.00 0.00 96 1016.2
20260506095908 15 6 0.0 0.0 0.00 0.00 0.00 96 1016.3
20260506095406 15 23 0.0 0.0 0.00 0.00 0.00 96 1016.0
20260506094902 15 24 0.0 0.0 0.00 0.00 0.00 96 1016.2
20260506094401 15 23 0.0 0.0 0.00 0.00 0.00 96 1016.3
20260506093858 15 23 0.0 0.0 0.00 0.00 0.00 96 1016.3
20260506093355 15 34 0.0 0.0 0.00 0.00 0.00 96 1016.1
20260506092853 15 26 0.0 1.6 0.00 0.00 0.00 96 1016.2
20260506092351 15 11 0.0 0.0 0.00 0.00 0.00 96 1016.2
20260506091847 15 359 0.0 0.0 0.00 0.00 0.00 96 1016.5
20260506091345 15 345 1.6 1.6 0.00 0.00 0.00 96 1016.4
20260506090842 15 346 1.6 1.6 0.00 0.00 0.00 96 1016.2
20260506090340 15 5 0.0 0.0 0.00 0.00 0.00 96 1015.9
20260506085836 15 16 0.0 0.0 0.00 0.00 0.00 96 1015.8
20260506085332 15 26 0.0 1.6 0.00 0.00 0.00 96 1015.8
20260506084829 15 27 0.0 0.0 0.00 0.00 0.00 95 1016.0
20260506084326 15 15 0.0 0.0 0.00 0.00 0.00 95 1015.6
20260506083823 15 16 0.0 0.0 0.00 0.00 0.00 95 1015.9
20260506083320 15 7 0.0 0.0 0.00 0.00 0.00 95 1015.9
20260506082818 15 7 0.0 0.0 0.00 0.00 0.00 95 1015.9
20260506082314 15 19 0.0 0.0 0.00 0.00 0.00 95 1016.0
20260506081810 15 24 0.0 0.0 0.00 0.00 0.00 95 1016.0
20260506081308 15 13 0.0 0.0 0.00 0.00 0.00 94 1016.1
20260506080806 15 4 0.0 0.0 0.00 0.00 0.00 94 1016.2
20260506080302 15 13 0.0 0.0 0.00 0.00 0.00 94 1015.9
20260506073246 16 349 1.6 1.6 0.00 0.00 0.00 93 1015.8
20260506072743 16 1 1.6 1.6 0.00 0.00 0.00 93 1015.5
20260506072240 16 12 0.0 0.0 0.00 0.00 0.00 93 1015.7
20260506071738 15 51 1.6 1.6 0.00 0.00 0.00 94 1015.6
20260506071236 15 14 0.0 0.0 0.00 0.00 0.00 94 1015.3
20260506070732 15 17 0.0 0.0 0.00 0.00 0.00 94 1015.7
20260506070229 15 20 0.0 0.0 0.00 0.00 0.00 94 1015.9
20260506062207 15 34 0.0 0.0 0.00 0.00 0.00 93 1016.2
20260506061702 15 12 0.0 0.0 0.00 0.00 0.00 93 1016.5
20260506061200 15 5 0.0 0.0 0.00 0.00 0.00 93 1016.7
20260506060659 15 5 0.0 1.6 0.00 0.00 0.00 93 1016.7
20260506060155 15 12 0.0 0.0 0.00 0.00 0.00 92 1016.4
20260506051127 16 12 0.0 0.0 0.00 0.00 0.00 91 1017.2
20260506050625 16 3 0.0 0.0 0.00 0.00 0.00 91 1017.0
20260506050122 16 4 0.0 0.0 0.00 0.00 0.00 91 1017.2
20260506045115 16 15 0.0 0.0 0.00 0.00 0.00 90 1017.0
20260506044613 16 20 0.0 0.0 0.00 0.00 0.00 89 1016.9
20260506044110 16 25 0.0 1.6 0.00 0.00 0.00 89 1017.2
20260506043607 16 24 0.0 0.0 0.00 0.00 0.00 89 1017.1
20260506043105 16 15 0.0 0.0 0.00 0.00 0.00 88 1017.1
20260506042604 16 20 0.0 0.0 0.00 0.00 0.00 88 1017.1
20260506042102 16 23 0.0 0.0 0.00 0.00 0.00 88 1017.1
20260506041600 16 13 0.0 0.0 0.00 0.00 0.00 87 1017.3
20260506041056 17 8 0.0 0.0 0.00 0.00 0.00 87 1017.3
20260506040554 17 5 0.0 0.0 0.00 0.00 0.00 87 1017.2
20260506040050 17 15 0.0 0.0 0.00 0.00 0.00 86 1017.1
20260506035547 17 15 0.0 0.0 0.00 0.00 0.00 85 1017.4
20260506035044 17 17 0.0 0.0 0.00 0.00 0.00 84 1017.4
20260506034542 17 12 0.0 0.0 0.00 0.00 0.00 83 1017.6
20260506034038 17 17 0.0 0.0 0.00 0.00 0.00 83 1017.3
20260506033536 18 6 0.0 0.0 0.00 0.00 0.00 81 1017.3
20260506033032 18 5 0.0 0.0 0.00 0.00 0.00 80 1017.5
20260506032530 18 5 0.0 0.0 0.00 0.00 0.00 79 1017.3
20260506032026 18 22 1.6 1.6 0.00 0.00 0.00 79 1017.0
20260506031524 18 25 0.0 1.6 0.00 0.00 0.00 78 1017.3
20260506031021 18 35 1.6 1.6 0.00 0.00 0.00 77 1016.9
20260506030519 19 21 0.0 0.0 0.00 0.00 0.00 77 1016.9
20260506030016 19 35 0.0 0.0 0.00 0.00 0.00 76 1016.9
20260506025513 19 9 1.6 1.6 0.00 0.00 0.00 76 1016.9
20260506025009 20 13 0.0 0.0 0.00 0.00 0.00 76 1017.0
20260506024507 19 0 0.0 1.6 0.00 0.00 0.00 75 1017.1
20260506024002 19 41 1.6 1.6 0.00 0.00 0.00 77 1016.8
20260506023459 19 35 1.6 1.6 0.00 0.00 0.00 76 1016.7
20260506022955 19 48 1.6 1.6 0.00 0.00 0.00 75 1016.9
20260506022453 19 55 1.6 1.6 0.00 0.00 0.00 75 1017.0
20260506021951 20 37 1.6 1.6 0.00 0.00 0.00 74 1016.9
20260506021448 20 19 0.0 0.0 0.00 0.00 0.00 73 1016.6
20260506020945 20 28 0.0 1.6 0.00 0.00 0.00 73 1016.9
20260506020443 20 21 0.0 0.0 0.00 0.00 0.00 72 1016.6
20260506015940 20 34 0.0 1.6 0.00 0.00 0.00 71 1016.5
20260506015437 20 64 1.6 3.2 0.00 0.00 0.00 71 1016.3
20260506014934 20 39 0.0 1.6 0.00 0.00 0.00 71 1016.5
20260506014431 20 34 0.0 1.6 0.00 0.00 0.00 71 1016.2
20260506013927 20 36 0.0 1.6 0.00 0.00 0.00 70 1016.2
20260506013426 20 24 0.0 0.0 0.00 0.00 0.00 70 1016.1
20260506012921 21 9 0.0 0.0 0.00 0.00 0.00 69 1016.2
20260506012418 21 30 0.0 1.6 0.00 0.00 0.00 68 1016.1
20260506011915 21 14 0.0 0.0 0.00 0.00 0.00 67 1016.0
20260506011412 21 345 0.0 0.0 0.00 0.00 0.00 67 1016.0
20260506010909 21 27 0.0 0.0 0.00 0.00 0.00 66 1016.1
20260506010408 22 35 0.0 1.6 0.00 0.00 0.00 65 1015.8
20260506005904 22 22 0.0 0.0 0.00 0.00 0.00 64 1015.9
20260506005402 22 49 1.6 1.6 0.00 0.00 0.00 64 1015.9
20260506004857 22 40 0.0 1.6 0.00 0.00 0.00 63 1016.0
20260506004355 22 138 3.2 3.2 0.00 0.00 0.00 62 1016.0
20260506003851 22 20 3.2 3.2 0.00 0.00 0.00 62 1015.6
20260506003347 23 43 1.6 1.6 0.00 0.00 0.00 61 1015.6
20260506002844 23 31 0.0 1.6 0.00 0.00 0.00 61 1015.7
20260506002340 23 53 1.6 3.2 0.00 0.00 0.00 61 1015.4
20260506001836 23 132 3.2 3.2 0.00 0.00 0.00 60 1015.4
20260506001333 23 75 4.8 8.0 0.00 0.00 0.00 60 1015.4
20260506000830 23 112 3.2 3.2 0.00 0.00 0.00 60 1015.5
20260506000329 23 74 1.6 3.2 0.00 0.00 0.00 60 1015.5
20260505235824 24 27 1.6 1.6 0.00 0.00 0.00 59 1015.3
20260505235322 24 75 1.6 1.6 0.00 0.00 0.00 58 1015.2
20260505234818 24 89 4.8 9.7 0.00 0.00 0.00 58 1015.0
20260505234317 24 50 1.6 1.6 0.00 0.00 0.00 59 1015.1
20260505233813 25 43 3.2 4.8 0.00 0.00 0.00 58 1015.0
20260505233311 25 109 4.8 8.0 0.00 0.00 0.00 57 1015.1
20260505232808 25 168 3.2 4.8 0.00 0.00 0.00 57 1015.1
20260505232306 25 88 3.2 3.2 0.00 0.00 0.00 57 1015.1
20260505231802 25 90 6.4 8.0 0.00 0.00 0.00 57 1015.0
20260505231300 25 64 1.6 1.6 0.00 0.00 0.00 57 1015.0
20260505230758 25 61 4.8 4.8 0.00 0.00 0.00 56 1015.0
20260505230255 25 77 4.8 8.0 0.00 0.00 0.00 56 1014.7
20260505225752 25 67 4.8 8.0 0.00 0.00 0.00 56 1014.7
20260505225249 26 77 4.8 8.0 0.00 0.00 0.00 55 1014.9
20260505224743 26 87 6.4 9.7 0.00 0.00 0.00 54 1014.6
20260505224242 26 79 6.4 9.7 0.00 0.00 0.00 54 1014.7
20260505223739 26 136 3.2 4.8 0.00 0.00 0.00 54 1014.7